Regional Weather Roundup
Issued by NWS

Home | Current Version | Previous Version | Graphics & Text | Print | Product List | Glossary On
Versions: 1 2 3 4 5 6 7 8 9 10 11 12 13 14 15 16 17 18 19 20 21 22 23 24 25 26 27 28 29 30 31 32 33 34 35 36 37 38 39 40 41 42 43 44 45 46 47 48 49 50
000
ASUS43 KIND 191209
RWRIN

WEATHER ROUNDUP FOR INDIANA
NATIONAL WEATHER SERVICE INDIANAPOLIS IN
800 AM EDT THU OCT 19 2017

NOTE: "FAIR" INDICATES FEW OR NO CLOUDS BELOW 12,000 FEET WITH NO
SIGNIFICANT WEATHER AND/OR OBSTRUCTIONS TO VISIBILITY.

* - STATION DOES NOT REPORT WEATHER SUCH AS PRECIPITATION OR FOG.

+ - STATION NOT QUALITY CONTROLLED BY THE NATIONAL WEATHER SERVICE.
    USE DATA WITH CAUTION...ESPECIALLY DEWPOINT AND RELATIVE
    HUMIDITY OBSERVATIONS.

INZ001>003-010>013-019-020-191300-
NORTHWEST INDIANA

CITY           SKY/WX    TMP DP  RH WIND       PRES   REMARKS
GARY /AIRPORT/ PTCLDY    52  46  82 SW6       30.11R
KNOX *+        CLOUDY    46  45  93 SW3       30.12R
LA PORTE +     CLOUDY    45  43  95 SW5       30.12R
6HR MIN TEMP:  44; 6HR MAX TEMP:  52;

MICHIGAN CITY+ CLOUDY    50  45  81 CALM      30.11R
MONTICELLO +   CLEAR     50  47  90 SW6       30.14R
6HR MIN TEMP:  50; 6HR MAX TEMP:  52;

RENSSELAER +   CLEAR     50  43  76 SW6       30.13R
VALPARAISO     CLOUDY    51  47  86 SW7       30.12R
6HR MIN TEMP:  48; 6HR MAX TEMP:  54;


$$

LMZ046-743>745-191300-
SOUTHERN LAKE MICHIGAN

STATION/POSITION TIME  TEMP    WIND        PRES    WAVE
                       AIR SEA DIR/SP/G            HT
                 (UTC) (F)     (DEG/KT/KT) (MB)    (FT)
BURNS HARBOR     1140   56     230/  9/ 13 1019.6R
MICHIGAN CITY    1140   56     230/ 16/ 17   N/A
5NW MICH CITY    1200   56 57  250/ 12/ 16   N/A     2

$$

INZ004-005-014>016-021>024-191300-
NORTH CENTRAL INDIANA

CITY           SKY/WX    TMP DP  RH WIND       PRES   REMARKS
ELKHART        CLEAR     50  45  81 SW6       30.10R
GOSHEN         CLOUDY    51  44  77 SW8       30.11R
6HR MIN TEMP:  51; 6HR MAX TEMP:  55;

LOGANSPORT +   CLEAR     50  45  81 SW9       30.14S
PERU/GRISSOM   CLEAR     49  47  90 SW6       30.13R
6HR MIN TEMP:  49; 6HR MAX TEMP:  54;

SOUTH BEND     CLOUDY    50  47  89 SW7       30.12R
6HR MIN TEMP:  50; 6HR MAX TEMP:  55;

WARSAW +       CLEAR     54  46  76 SW6       30.12R

$$

INZ006>009-017-018-025>027-191300-
NORTHEAST INDIANA

CITY           SKY/WX    TMP DP  RH WIND       PRES   REMARKS
AUBURN +       CLEAR     50  45  81 SW6       30.12S
FORT WAYNE     PTCLDY    49  44  83 SW7       30.14R
6HR MIN TEMP:  46; 6HR MAX TEMP:  50;

HUNTINGTON +   CLEAR     50  46  87 SW5       30.14R
6HR MIN TEMP:  50; 6HR MAX TEMP:  53;

KENDALLVILLE + CLEAR     51  46  84 SW9       30.11R

$$

INZ028-029-035-036-043>045-051>053-191300-
WEST CENTRAL INDIANA

CITY           SKY/WX    TMP DP  RH WIND       PRES   REMARKS
CRAWFORDSVL +  CLEAR     48  46  93 S7        30.16S
GREENCASTLE +  CLEAR     54  45  71 S3        30.18S
LAFAYETTE      CLEAR     51  47  86 SW6       30.14R
6HR MIN TEMP:  50; 6HR MAX TEMP:  52;

TERRE HAUTE    CLEAR     51  46  83 S6        30.18S
6HR MIN TEMP:  50; 6HR MAX TEMP:  55;


$$

INZ030>032-037>040-046>048-054>057-064-065-191300-
CENTRAL INDIANA

CITY           SKY/WX    TMP DP  RH WIND       PRES   REMARKS
ANDERSON       CLEAR     52  45  76 S12       30.17
CP ATTERBURY + CLEAR     43  41  93 CALM      30.20S
COLUMBUS       CLEAR     45  41  87 S6        30.21S
FISHERS *+     CLEAR     50  48  93 SW6       30.17S
FRANKFORT +    CLEAR     53  48  83 SW5       30.16S
6HR MIN TEMP:  50; 6HR MAX TEMP:  54;

GREENWOOD *+   CLEAR     51  47  86 S5        30.19S
6HR MIN TEMP:  48; 6HR MAX TEMP:  54;

INDIANAPOLIS   PTCLDY    48  44  86 SW6       30.18S
6HR MIN TEMP:  48; 6HR MAX TEMP:  54;

-EAGLE CREEK   CLEAR     50  44  80 S3        30.16S
6HR MIN TEMP:  47; 6HR MAX TEMP:  51;

KOKOMO +       CLEAR     52  46  80 SW9       30.15R
6HR MIN TEMP:  50; 6HR MAX TEMP:  55;

MT COMFORT *+  CLEAR     46  46 100 S7        30.18S
SHELBYVILLE    CLEAR     50  43  77 S9        30.19R
6HR MIN TEMP:  48; 6HR MAX TEMP:  53;

ZIONSVILLE +   CLEAR     49  45  86 SW5       30.16S
6HR MIN TEMP:  47; 6HR MAX TEMP:  50;


$$

INZ033-034-041-042-049-050-058-059-191300-
EAST CENTRAL INDIANA

CITY           SKY/WX    TMP DP  RH WIND       PRES   REMARKS
MUNCIE         CLEAR     54  45  71 SW8       30.16R
6HR MIN TEMP:  54; 6HR MAX TEMP:  56;

RICHMOND +     CLEAR     45  43  93 SW5       30.20S

$$

INZ060-061-067>069-081>083-085>088-191300-
SOUTHWEST INDIANA

CITY           SKY/WX    TMP DP  RH WIND       PRES   REMARKS
EVANSVILLE     CLEAR     48  45  89 CALM      30.23S
6HR MIN TEMP:  46; 6HR MAX TEMP:  54;

WASHINGTON +   CLEAR     45  43  94 SE3       30.20S
6HR MIN TEMP:  44; 6HR MAX TEMP:  48;


$$

INZ062-063-066-070>080-084-089>092-191300-
SOUTH CENTRAL AND SOUTHEAST INDIANA

CITY           SKY/WX    TMP DP  RH WIND       PRES   REMARKS
BEDFORD +      CLEAR     48  43  81 S5        30.21S
BLOOMINGTON    CLEAR     51  44  77 SW5       30.20R
6HR MIN TEMP:  43; 6HR MAX TEMP:  52;

MADISON *+     CLEAR     46  45  93 CALM      30.26R
NORTH VERNON + CLEAR     46  43  87 S6        30.22S
SEYMOUR +      CLEAR     43  43 100 CALM      30.22S

$$




USA.gov is the U.S. government's official web portal to all federal, state and local government web resources and services.